Location: Asheville, NC
(35.6000°N, 82.5500°W)
Time: 11:46:18
(UTC-04:00)

XW-2D - Pass Details

Date: 05 January 2018
Orbit: 510 x 530 km, 97.5° (Epoch: 23 June)

Event Time Altitude Azimuth Distance (km) Brightness Sun altitude
Rises 05:37:06 0° 32° (NNE) 2,658 ? -24.4°
Reaches altitude 10° 05:39:54 10° 55° (NE) 1,760 ? -23.8°
Maximum altitude 05:42:17 16° 94° (E) 1,419 ? -23.4°
Drops below altitude 10° 05:44:38 10° 133° (SE) 1,743 ? -22.9°
Sets 05:47:23 0° 155° (SSE) 2,619 ? -22.4°
